User: anonymous   Login
Location: Unspecified
(0.0000°N, 0.0000°E)
Time: 19:31:14
(UTC+00:00)
Language:

URSA MAIOR - Orbit

View from above orbital plane
View from above orbital plane
View from above satellite
View from above satellite

Ground track
Ground track

The orbit data is extracted from the following two-line orbital elements,

1 42776U 17036M   19077.80584487  .00000979  00000-0  46765-4 0  9998
2 42776  97.3626 136.8083 0014020 175.8333 184.3022 15.21294577 96241
Epoch (UTC): 18 March 2019 19:20:24
Eccentricity: 0.0014020
inclination: 97.3626°
perigee height: 492 km
apogee height: 511 km
right ascension of ascending node: 136.8083°
argument of perigee: 175.8333°
revolutions per day: 15.21294577
mean anomaly at epoch: 184.3022°
orbit number at epoch: 9624

The dashed part of the orbit path shows where the satellite is in the earth's shadow,  

DLR